DECAYED
Showing default

YAOGAN-35 B, 49391 (Decayed)

Orbit data source: Space-Track

YAOGAN-35 B, 49391 was a payload satellite owned by PLA GAD (CN) in LEO that was launched on Sat, 06 Nov 2021 UTC via a CHANG ZHENG 2D launch vehicle from the Xichang Space Center, China (XSC). Payload-class satellites include a variety of spacecraft equipped with specific instruments for various scientific and technological missions. These include communications satellites like Starlink; space stations such as the ISS; scientific satellites like the Hubble; Earth observation satellites from companies like Planet Labs, Umbra, and HawkEye 360; GPS; miniature CubeSats for education and research; and military/defense satellites.

Not visible in the next 10 days
Identifier
49391, 2021-101B
Orbit
Decayed
Country
Flag of CNCN / PRC
Related business
Manufacturer
SAST
Mission
Decayed Defense Sigint
Bus & Motor
Unknown
Mass
~300 kg wet, ~300 kg dry
Launch date (UTC)
2021-11-06 (5 years ago)
Launch vehicle
CHANG ZHENG 2D
Launch site
Xichang Space Center, China (XSC)
Object type
Payload
Rocket body
Debris
Shape & HBR
Box + 2 Pan, 2.5 m
Radar Cross Section
11.063 m², Large (>1 m²)

Expand to show TLE details & history
Last TLE update: 11 months ago

TLE from 11 months ago
0 YAOGAN-35 B
1 49391U 21101B   25210.86973334  .05618636  14194-5  11970-2 0  9993
2 49391  34.9848  22.9388 0009769 312.1765 154.9478 16.29498990208928
Epoch: 2025-07-29T20:52Z
TLE epoch observation values (Epoch: 2025-07-29T20:52:24.960Z)
Latitude
33.36405°
Longitude
-127.23835°
Altitude
199.893 km
Speed
7.789 km/s
True Right ascension
08h 54m 29s
True Declination
33° 11' 34"
Sunlit
Object was in daylight at epoch
Visualization orbit readout
Latitude
Unknown
Longitude
Unknown
Altitude
Unknown
Speed
Unknown
Apparent Right ascension
Unknown
Apparent Declination
Unknown
Sunlit
N/A
Visualization observer readout
Local Sidereal Time
21:30:37
Azimuth
Unknown
Elevation
Unknown
Doppler factor
Unknown
Orbital elements
Apogee altitude
203.712 km
Perigee altitude
190.865 km
Semi-major axis
6,575.426 km
Eccentricity
0.00098
Inclination
34.9848°
RAAN
22.9388°
Arg. of periapsis
312.1765°
True anomaly
154.99515°
Mean anomaly
154.9478°
Eccentric anomaly
154.97148°
Mean motion
4.07059 °/min
Orbital period
88.44 mins
BSTAR
0.001197
Loading maneuver chart data...
Computing Atmospheric mass density...
Loading historical data...
Loading historical data...
Loading historical data...
Loading historical data...
Loading historical data...
Loading historical data...
Loading historical data...
Other satellites on launch #101 in the year 2021 (2021-11-06 UTC)

Documentation

Showing up to 5 results
|